Preview of NWS' New Version of Forecast
This preview is not operational and should not be used for support decisions.

Regional Weather Roundup (RWR)

Issued by National Weather Service (NWS)

                            
000
ASUS44 KMEG 201810
RWRTN 
TENNESSEE HOURLY STATE WEATHER ROUNDUP
NATIONAL WEATHER SERVICE MEMPHIS TN
1200 PM CST WED FEB 20 2019

TNZ002-004-019-021-049-052-054-088>092-201900-
WEST TENNESSEE
  
CITY           SKY/WX    TMP DP  RH WIND       PRES   REMARKS
MEMPHIS INTL   CLOUDY    45  44  97 W10       29.89R FOG              
NWS MEMPHIS      N/A     45 N/A N/A MISG        N/A                   
JACKSON        CLOUDY    55  54  96 S14       29.83F                  
DYERSBURG      LGT RAIN  43  43 100 W9        29.87R FOG              
SOMERVILLE     CLOUDY    52  52 100 W9        29.84F FOG              
COVINGTON      CLOUDY    45  45 100 W8G15     29.86S                  
UNION CITY     FOG       45  45 100 W3        29.83R VSB 1            
PARIS          CLOUDY    52  52 100 S9        29.80F                  
HUNTINGDON     CLOUDY    54  54 100 S12       29.80F                  
SELMER         PTSUNNY   57  55  94 S14G21    29.83F                  
$$

TNZ008-025-027-028-033-062-065-066-201900-
NORTH MIDDLE TENNESSEE
  
CITY           SKY/WX    TMP DP  RH WIND       PRES   REMARKS
NASHVILLE      CLOUDY    55  51  86 S25       29.86F                  
DICKSON        CLOUDY    54  52  94 S12G22    29.82F                  
CLARKSVILLE    LGT RAIN  52  49  89 S10       29.82S                  
LEBANON        PTCLDY    57  54  88 S24G37    29.83F                  
SMYRNA         LGT RAIN  54  52  94 S14G23    29.88R                  
MURFREESBORO   CLOUDY    52  50  93 S24G35    29.83F FOG              
COOKEVILLE     FOG       52  50  93 SE16      29.96R VSB 3/4          
LIVINGSTON       N/A    N/A N/A N/A MISG        N/A                   
GALLATIN       CLOUDY    54  52  94 VRB7G16   29.88R                  
CROSSVILLE     TSTM      48  46  93 S3        29.99S FOG              
ROCKWOOD       CLOUDY    45  45 100 SW6       30.00F                  
$$

TNZ061-075-076-078-094-096-097-201900-
SOUTH MIDDLE TENNESSEE
  
CITY           SKY/WX    TMP DP  RH WIND       PRES   REMARKS
LAWRENCEBURG   MOCLDY    52  50  93 SE16G24   29.90R                  
LEWISBURG      MOCLDY    50  48  93 S13G23    29.90R FOG              
FAYETTEVILLE   CLOUDY    48  48 100 S9        29.96F FOG              
TULLAHOMA      CLOUDY    48  48 100 SE8       29.96S FOG              
WINCHESTER     CLOUDY    50  46  87 W10G22    30.00R                  
MCMINNVILLE    CLOUDY    52  50  93 VRB5      29.97S FOG              
COLUMBIA       PTSUNNY   54  54 100 S8G21     29.86R FOG              
SHELBYVILLE    CLOUDY    50  48  93 SE17      29.91F FOG              
$$

TNZ017-018-042-046-047-201900-
NORTHEAST TENNESSEE
  
CITY           SKY/WX    TMP DP  RH WIND       PRES   REMARKS
TRI CITIES     LGT RAIN  55  46  71 VRB3      30.07F                  
ELIZABETHTON   CLOUDY    54  43  66 E9        30.09F                  
GREENEVILLE    CLOUDY    55  45  67 S8        30.04F                  
$$

TNZ012-013-036-069-073-074-201900-
CENTRAL EAST TENNESSEE
  
CITY           SKY/WX    TMP DP  RH WIND       PRES   REMARKS
KNOXVILLE      CLOUDY    50  45  83 N7        30.02F                  
OAK RIDGE      LGT RAIN  47  46  97 CALM      30.04                   
DOWNTOWN KNOXV CLOUDY    52  46  82 CALM      30.04F                  
GATLINBURG     CLOUDY    55  48  76 CALM      30.02F                  
MORRISTOWN     CLOUDY    54  46  76 N5        30.01F                  
JACKSBORO      FOG       46  46 100 VRB7      30.05F VSB 1            
$$

TNZ083-085-099-201900-
SOUTHEAST TENNESSEE
  
CITY           SKY/WX    TMP DP  RH WIND       PRES   REMARKS
CHATTANOOGA    CLOUDY    47  43  86 S9        30.05F FOG              
DAYTON         CLOUDY    46  45  93 SW5       30.03F                  
$$

SKY/WX REPORTED AS FAIR MEANS FEW OR NO CLOUDS BELOW
12 THOUSAND FEET.